Theta_e
338 346 351 354 355 354 353 352 350 349 346 345 344 344 343 345 345 346 347 346 346 344 343 344 341 338 339 338 337 336 338 337 336 337 336 335 335 336 336 334 334 327 333
341 348 349 352 353 353 353 352 350 349 347 347 346 346 344 345 343 343 344 345 345 342 340 341 341 338 339 337 336 336 335 336 336 336 336 336 336 334 333 332 332 330 332
342 348 349 350 352 353 352 351 350 349 349 347 346 347 345 344 343 341 344 344 342 340 342 342 339 339 337 339 337 335 335 334 336 336 334 324 325 332 332 332 332 333 332
343 347 348 346 351 352 352 351 350 349 349 349 347 345 345 344 343 342 342 344 341 338 337 337 335 338 337 336 336 335 333 331 331 331 324 324 326 333 331 331 331 330 330
343 346 347 346 351 351 351 350 349 349 348 348 348 345 343 342 344 344 344 343 341 336 334 337 335 336 336 335 334 332 329 329 332 325 320 321 323 329 331 332 331 331 332
342 344 343 347 350 350 350 349 349 348 348 348 347 346 344 344 344 344 343 341 340 337 333 335 333 333 333 333 331 329 327 330 328 318 323 328 324 331 332 331 331 331 333
341 342 344 346 348 348 348 349 348 348 347 347 346 345 344 344 344 343 342 340 339 335 334 334 332 331 330 329 328 327 327 327 318 317 321 322 324 332 332 333 333 331 331
340 341 343 340 342 345 346 347 347 346 346 346 346 344 344 344 343 343 342 340 339 335 334 333 333 333 330 328 327 326 325 324 318 321 322 323 331 331 332 332 332 332 333
341 342 343 344 342 338 340 341 343 344 344 344 344 344 342 341 341 341 341 339 338 335 334 335 334 333 331 329 326 326 324 323 314 318 323 324 331 330 330 330 330 332 332
340 342 341 343 342 342 341 335 336 339 339 340 339 337 334 335 336 335 334 337 337 336 335 334 334 333 332 329 327 324 323 322 315 319 324 326 332 331 330 333 334 334 335
336 339 341 341 342 341 341 336 333 334 335 334 334 331 329 334 332 330 330 334 336 335 334 332 332 332 331 329 325 322 321 315 315 319 322 329 331 330 332 332 332 333 334
329 333 339 339 340 340 341 338 338 338 338 337 336 333 334 332 330 329 326 329 331 331 333 332 331 329 323 318 317 320 315 315 315 320 322 328 329 332 332 331 331 332 337
329 332 334 339 338 338 338 337 337 337 336 336 334 334 333 332 328 327 325 327 323 321 325 325 324 320 317 315 315 314 315 314 315 319 322 326 328 333 334 332 332 332 336
324 328 330 335 337 338 338 337 336 336 336 335 335 334 332 330 328 326 324 322 321 320 318 317 317 316 314 315 316 315 315 316 316 317 318 322 328 331 334 334 334 333 336
318 324 329 331 334 336 334 335 334 333 333 334 334 334 333 330 328 326 325 323 321 320 316 314 314 312 311 311 315 316 316 317 316 317 317 319 326 332 334 334 336 336 337
316 319 327 330 333 335 333 333 331 330 330 329 333 334 332 330 328 327 326 323 321 320 315 315 312 310 312 315 315 317 317 317 318 317 318 319 324 328 330 333 333 336 338
311 314 318 328 329 331 331 332 331 332 333 331 332 333 332 330 328 328 326 324 322 320 315 314 311 312 313 315 314 316 316 317 318 319 319 318 319 321 326 328 332 333 333
306 309 315 325 329 329 330 332 332 333 334 334 333 333 331 330 329 327 325 322 322 320 314 312 310 311 312 312 312 313 315 317 317 321 322 319 317 318 320 322 326 329 331
304 307 310 316 326 328 330 332 332 333 332 333 333 333 331 330 330 326 323 321 319 317 313 311 309 311 311 311 312 313 315 316 318 321 322 322 320 317 314 318 317 320 324
297 304 310 314 324 327 330 331 331 331 331 332 332 332 331 330 329 325 322 321 318 314 312 310 309 313 313 313 315 315 315 320 320 320 321 321 320 318 316 313 312 312 318
298 302 307 316 322 323 324 326 328 327 328 329 331 332 331 330 328 326 323 322 318 315 314 313 311 312 312 313 311 313 315 317 317 317 317 317 317 318 317 316 312 309 309
295 297 302 310 319 323 324 326 326 328 329 330 330 330 331 330 328 326 323 321 319 316 314 313 313 313 314 313 311 310 306 309 313 315 316 315 312 310 309 310 308 306 305
293 294 299 315 316 320 325 328 327 328 328 327 328 327 328 328 327 326 324 321 318 317 315 314 315 314 313 314 314 310 306 304 306 311 312 311 309 308 306 305 304 304 302
294 304 308 310 312 317 323 325 326 324 323 325 327 327 326 326 325 324 323 321 320 318 316 315 316 316 315 313 314 315 314 311 306 305 307 307 306 305 304 302 301 301 302
302 302 304 308 308 312 317 324 323 324 324 325 325 325 325 325 326 325 324 323 321 318 316 316 315 316 317 316 316 314 314 313 314 309 304 302 301 302 302 301 299 299 299
298 298 301 304 306 309 313 319 324 323 323 323 323 323 323 324 324 324 324 323 322 322 318 316 316 316 317 318 318 317 315 313 312 313 308 302 301 298 298 297 297 296 296
Wind_Speed
10 14 17 18 19 20 18 20 19 16 16 16 15 16 15 15 15 16 15 15 15 16 18 15 17 18 16 17 17 15 17 18 16 15 15 14 15 13 17 15 10 11 14
13 14 15 17 19 20 19 19 19 18 17 16 16 14 16 16 16 16 13 12 15 16 16 14 17 18 16 17 16 16 14 15 15 15 14 12 13 15 16 13 12 10 14
18 15 14 14 18 19 20 20 19 19 17 17 16 15 17 17 16 16 14 13 11 15 15 16 16 18 16 16 17 15 14 13 12 13 13 5 6 13 13 11 12 10 13
15 14 14 13 15 18 19 20 19 19 18 18 17 16 17 18 16 16 16 15 13 14 13 13 14 15 18 15 14 12 11 9 5 4 3 5 5 12 11 11 11 10 10
15 14 13 15 16 17 18 20 19 18 18 18 17 18 16 16 15 15 14 15 15 13 14 13 13 13 15 14 11 7 5 6 8 9 6 6 4 8 9 9 7 9 6
13 13 15 16 17 17 17 20 20 18 18 18 16 17 16 14 14 14 15 16 15 15 13 14 13 12 12 11 10 6 4 7 6 3 7 8 5 9 8 8 8 7 6
12 11 14 17 16 17 17 19 20 19 18 18 17 17 16 15 14 13 15 16 13 14 14 15 14 12 12 10 8 6 5 6 5 5 6 6 5 8 9 8 8 7 6
12 11 13 16 15 15 17 17 19 20 19 18 18 17 16 16 14 13 13 15 16 16 13 15 15 13 11 10 6 4 4 6 5 7 6 5 6 7 7 6 5 5 6
12 12 11 11 15 14 13 14 15 17 18 17 17 16 15 15 14 13 13 13 16 15 15 14 16 14 11 9 6 2 2 4 3 4 5 4 5 5 5 5 4 4 5
8 11 12 11 11 11 10 13 13 13 13 15 14 13 13 13 13 12 10 11 18 15 14 13 14 14 13 9 6 4 2 3 1 5 4 3 5 3 4 4 3 5 6
3 9 11 12 12 11 10 10 13 13 12 13 14 13 13 8 8 10 8 11 17 14 13 12 12 11 11 10 7 5 3 1 2 4 3 7 4 2 4 3 3 3 5
5 4 9 11 11 11 10 10 8 9 8 7 8 9 8 8 7 8 8 10 11 14 15 11 10 9 7 4 4 5 2 3 1 4 3 7 3 4 6 6 5 5 8
7 3 7 10 12 11 9 7 6 5 6 6 8 10 8 7 6 5 4 5 4 7 4 5 5 3 5 3 3 4 4 4 3 3 5 7 2 3 7 7 6 5 7
2 5 8 8 11 13 7 8 7 7 7 6 8 11 8 6 7 6 5 5 4 4 5 5 3 4 5 5 6 5 5 4 3 3 4 7 3 3 2 6 9 9 10
2 4 6 8 8 10 10 10 8 8 7 8 8 11 9 8 9 8 7 6 6 5 5 5 5 5 5 6 5 5 5 4 4 3 3 8 4 2 4 1 7 12 13
3 3 5 6 7 10 9 12 9 8 8 8 8 10 12 9 9 9 9 8 6 7 5 6 6 5 5 4 4 4 4 4 5 5 4 4 7 4 4 6 3 6 16
6 5 2 6 6 9 12 7 8 8 9 9 8 12 13 12 11 11 9 8 8 6 7 6 5 5 5 3 5 5 4 5 5 7 5 4 5 6 4 5 6 4 4
7 7 7 4 5 7 10 11 9 7 8 9 8 9 13 13 13 9 9 8 7 7 6 5 4 4 5 5 4 4 4 5 5 6 5 4 4 3 5 2 3 8 7
8 7 7 5 6 7 8 10 10 12 8 7 8 9 13 13 13 10 8 7 9 8 6 6 4 4 4 4 5 5 5 5 6 4 6 7 7 5 4 5 3 7 9
8 9 7 6 6 7 8 8 8 10 9 7 8 9 13 10 12 9 7 8 7 6 6 5 5 4 4 4 5 4 3 2 2 3 5 4 6 7 5 6 1 4 7
3 5 6 5 7 4 4 5 8 9 7 7 6 11 12 10 10 10 8 9 8 9 9 8 4 6 4 4 4 2 1 1 4 3 3 4 4 5 5 5 3 2 3
4 6 7 6 6 6 5 5 3 8 8 11 8 7 10 12 11 10 10 9 10 8 9 9 8 3 5 5 4 3 3 2 1 3 3 3 5 4 4 5 5 4 3
7 8 7 3 4 4 8 6 5 6 5 6 8 6 7 10 11 12 12 9 9 9 9 10 10 11 7 5 6 5 3 5 2 2 4 4 5 3 3 4 4 4 4
8 5 4 1 3 5 6 8 12 10 9 7 7 9 8 9 10 9 9 9 11 9 10 9 9 9 5 9 3 7 2 5 4 3 1 2 3 4 5 3 3 3 3
6 4 3 3 2 5 7 10 9 7 7 7 7 11 10 7 7 9 8 7 7 8 10 12 11 11 9 8 8 5 7 2 3 3 3 3 2 2 3 5 4 3 3
5 2 1 2 2 3 6 7 10 15 8 8 10 9 9 8 8 10 10 10 10 9 10 9 11 11 12 10 7 8 8 9 9 5 2 2 5 3 2 3 4 4 3
Wind_Direction
153 162 163 161 160 158 155 150 145 146 139 139 135 130 129 122 124 120 122 126 139 122 111 103 106 107 99 96 91 92 94 91 89 94 93 96 90 92 94 88 79 93 95
145 158 161 163 159 159 158 153 148 147 148 143 138 143 137 126 125 124 127 129 120 107 107 102 97 106 96 108 109 102 101 103 102 88 77 77 88 86 88 95 93 87 94
146 154 154 166 160 159 157 151 152 150 154 147 144 138 146 137 132 129 119 107 112 122 120 113 112 108 105 99 113 117 113 116 115 98 101 93 92 96 99 108 103 93 98
147 153 152 159 165 160 155 152 156 156 159 150 149 147 142 142 140 138 133 127 122 119 108 106 120 109 107 96 103 116 116 116 128 120 124 99 94 100 106 105 90 90 99
146 153 153 156 166 166 158 154 159 160 160 151 154 151 151 149 146 146 149 138 123 137 128 121 113 104 110 114 116 119 134 84 48 98 115 100 70 99 110 105 88 107 108
150 152 155 158 159 164 164 159 160 163 159 155 159 154 155 149 143 139 144 130 136 130 137 131 126 122 121 122 126 132 86 46 30 80 113 119 132 117 114 118 119 100 101
151 150 161 154 159 163 168 164 161 163 163 160 160 157 152 148 146 141 143 137 133 134 142 138 131 126 124 125 131 131 88 39 357 125 113 120 124 124 123 123 125 134 129
142 150 162 157 155 166 170 170 166 162 165 164 161 161 156 150 150 150 145 148 135 143 150 145 140 134 129 128 130 128 79 41 54 115 119 117 131 135 134 136 136 146 144
146 150 158 165 159 164 175 166 171 166 165 166 167 166 156 149 148 151 154 161 139 144 148 143 144 141 138 136 140 143 78 39 33 114 122 115 126 147 152 159 170 165 170
148 150 156 162 163 168 171 167 170 168 163 159 161 159 149 147 146 144 150 164 140 153 149 145 143 147 147 148 157 178 237 357 320 107 115 132 116 143 184 183 160 205 217
151 156 164 168 168 167 167 174 170 168 163 161 159 158 150 151 150 144 151 152 149 151 147 154 153 150 142 153 172 202 240 241 351 148 149 138 123 172 189 187 191 217 213
191 190 172 169 171 166 172 165 173 169 164 165 156 157 154 152 152 148 147 151 153 144 147 159 158 148 146 159 177 206 221 240 116 149 154 132 117 272 235 216 224 244 249
205 196 200 175 171 172 179 167 170 168 166 158 156 161 156 155 156 143 144 150 138 126 133 139 146 157 183 189 206 200 202 234 165 154 156 132 87 328 225 220 220 220 158
172 237 209 202 185 181 181 174 175 171 170 168 165 167 165 160 159 154 148 148 144 144 150 151 171 194 213 219 220 223 208 217 150 160 153 131 88 352 264 211 213 203 186
335 278 245 203 189 173 173 175 177 175 176 172 169 172 170 167 165 159 157 165 167 161 162 170 183 203 216 225 217 213 196 200 152 159 146 140 120 73 43 23 225 204 196
297 313 269 245 198 175 171 180 172 171 173 174 174 176 170 168 167 169 166 171 180 174 174 177 181 194 208 214 231 221 214 222 150 161 160 142 128 94 46 39 32 217 189
293 282 272 255 214 182 179 195 182 184 173 180 178 175 172 172 174 173 170 177 182 182 171 184 184 186 188 199 219 219 217 221 206 177 167 159 133 120 90 62 25 86 203
264 278 276 262 186 199 179 177 185 187 183 178 167 172 173 176 178 171 175 175 176 177 171 175 178 180 191 181 207 223 216 208 222 181 155 156 161 142 99 125 48 70 43
252 256 269 262 203 188 186 184 197 171 178 172 163 172 178 177 182 174 170 167 163 172 174 179 186 163 189 182 199 213 224 212 207 187 180 175 165 160 147 125 96 75 46
247 259 265 250 211 183 183 191 193 188 181 171 171 180 181 180 176 170 162 166 161 165 178 174 173 184 175 186 198 203 209 165 172 192 182 146 153 159 163 142 128 48 45
259 285 275 269 215 165 175 210 210 191 184 180 176 185 189 180 178 169 173 172 169 179 189 186 170 183 208 186 111 114 96 131 110 108 116 129 152 165 159 147 134 98 45
239 270 283 272 259 199 193 200 195 175 198 192 188 181 189 187 179 175 177 182 181 181 179 189 187 172 192 180 177 142 193 308 299 185 170 170 162 141 109 118 123 133 110
235 248 261 221 296 290 212 184 175 168 187 179 181 184 190 185 176 184 184 177 178 184 193 192 198 197 198 208 194 166 138 212 146 188 207 190 171 157 131 130 138 138 135
234 188 165 256 354 324 272 186 211 198 196 201 180 186 185 183 174 176 179 181 184 186 188 201 199 207 172 206 207 224 174 144 173 199 252 216 188 178 171 162 162 143 150
153 185 195 156 346 316 306 237 211 211 182 161 169 183 180 197 195 196 197 202 206 192 200 191 202 207 208 200 209 186 220 191 155 142 191 213 248 218 176 173 161 157 157
123 102 37 346 300 317 297 274 229 206 160 165 188 185 178 186 199 195 193 203 211 210 204 197 206 202 213 214 203 209 211 211 215 197 159 178 207 198 170 155 170 160 157